Location: Rumah Long Bangan
(2.8362°N, 113.7519°E)
Time: 18:59:38
(UTC+00:00)

SL-14 R/B - Pass Details

Date: 24 October 2021
Orbit: 519 x 552 km, 82.4° (Epoch: 08 December)

Event Time Altitude Azimuth Distance (km) Brightness Sun altitude
Rises 21:16:08 0° 200° (SSW) 2,713 6.8 -13.5°
Reaches altitude 10° 21:18:28 10° 210° (SSW) 1,813 5.8 -13.0°
Maximum altitude 21:22:02 32° 274° (W) 947 4.0 -12.1°
Drops below altitude 10° 21:25:34 10° 338° (NNW) 1,790 5.6 -11.2°
Sets 21:27:52 0° 348° (NNW) 2,673 6.6 -10.7°
